Home   Weather   Karlsruhe   Past weeks
Flag for Germany

Past Weather in Karlsruhe, Baden-Württemberg, Germany — Yesterday and Last 2 Weeks

Now
39 °F

Clear.


Feels Like: 34 °F
Forecast: 57 / 33 °F
Wind: 7 mph from Northeast

Location: Karlsruhe - Baden Wurttemberg

Current Time: Mar 21, 2019 at 12:36:04 am

Latest Report: Mar 20, 2019 at 11:50 pm


Visibility: N/A

Pressure: 30.54 "Hg

Humidity: 70%

Dew Point: 30 °F

Location of KarlsruheLocation

Past Weather in Karlsruhe — Graph

°F

Karlsruhe Temperature Yesterday

Maximum temperature yesterday: 54 °F (at 2:20 pm)
Minimum temperature yesterday: 28 °F (at 4:50 am)
Average temperature yesterday: 42 °F

High & Low Weather Summary for the Past Weeks

 TemperatureHumidityPressure
High61 °F (Mar 6, 3:20 pm)100% (Mar 6, 1:50 am)30.57 "Hg (Mar 6, 1:50 am)
Low28 °F (Mar 20, 4:50 am)26% (Mar 12, 3:20 pm)29.42 "Hg (Mar 7, 2:50 am)
Average47 °F71%29.99 "Hg
* Reported Mar 5 11:20 pm — Mar 20 11:20 pm, Karlsruhe. Weather by CustomWeather, © 2019

Note: Actual official high and low records may vary slightly from our data, if they occured in-between our weather recording intervals... More about our weather records

Advertising

Karlsruhe Weather History for the Previous 24 Hours

Scroll right to see more
 ConditionsComfort  
Time TempWeatherWind HumidityBarometerVisibility
11:20 pm
Wed, Mar 20
39 °FClear.7 mph70%30.54 "HgN/A
10:50 pm39 °FClear.6 mph70%30.54 "HgN/A
10:20 pm39 °FClear.6 mph65%30.54 "HgN/A
9:50 pm41 °FClear.5 mph66%30.54 "Hg10 mi
9:20 pm43 °FClear.5 mph57%30.54 "Hg10 mi
8:50 pm45 °FClear.2 mph53%30.54 "Hg10 mi
8:20 pm46 °FClear.7 mph50%30.54 "Hg10 mi
7:50 pm48 °FClear.7 mph46%30.51 "Hg10 mi
7:20 pm46 °FClear.7 mph50%30.51 "Hg10 mi
6:50 pm48 °FClear.9 mph46%30.51 "Hg10 mi
6:20 pm50 °FSunny.10 mph43%30.51 "Hg10 mi
5:50 pm54 °FSunny.14 mph35%30.51 "Hg10 mi
5:20 pm54 °FSunny.13 mph35%30.51 "Hg10 mi
4:50 pm54 °FSunny.14 mph38%30.48 "Hg10 mi
4:20 pm54 °FSunny.13 mph38%30.48 "Hg10 mi
3:50 pm54 °FSunny.12 mph38%30.51 "Hg10 mi
3:20 pm54 °FSunny.13 mph38%30.51 "Hg10 mi
2:20 pm54 °FPassing clouds.13 mph38%30.51 "HgN/A
1:50 pm52 °FPassing clouds.13 mph41%30.51 "HgN/A
1:20 pm52 °FSunny.13 mph41%30.54 "Hg10 mi
12:50 pm52 °FPassing clouds.13 mph44%30.54 "HgN/A
12:20 pm52 °FSunny.13 mph44%30.54 "Hg10 mi
11:50 am50 °FSunny.13 mph50%30.54 "Hg10 mi
11:20 am48 °FSunny.10 mph58%30.54 "Hg10 mi
10:50 am46 °FSunny.8 mph62%30.54 "Hg10 mi
10:20 am43 °FPassing clouds.7 mph66%30.54 "HgN/A
9:50 am41 °FPassing clouds.6 mph70%30.57 "HgN/A
9:20 am39 °FPassing clouds.5 mph75%30.54 "HgN/A
8:50 am37 °FPassing clouds.5 mph75%30.54 "HgN/A
8:20 am36 °FPassing clouds.3 mph87%30.54 "HgN/A
7:50 am34 °FSunny.5 mph93%30.54 "Hg10 mi
6:50 am28 °FSunny.No wind93%30.51 "Hg10 mi
6:20 am28 °FClear.1 mph93%30.51 "Hg10 mi
5:50 am28 °FClear.1 mph93%30.51 "Hg10 mi
5:20 am28 °FClear.No wind93%30.51 "Hg10 mi
4:50 am28 °FClear.No wind93%30.48 "Hg10 mi
4:20 am30 °FClear.No wind86%30.48 "Hg10 mi
3:50 am30 °FClear.No wind86%30.48 "HgN/A
3:20 am30 °FClear.2 mph86%30.48 "HgN/A
2:50 am30 °FClear.1 mph86%30.48 "HgN/A
2:20 am30 °FClear.1 mph86%30.48 "HgN/A
1:50 am34 °FClear.1 mph87%30.48 "HgN/A
1:20 am34 °FClear.3 mph87%30.48 "HgN/A
12:50 am34 °FClear.3 mph87%30.48 "HgN/A
12:20 am36 °FClear.1 mph75%30.48 "HgN/A
Weather by CustomWeather, © 2019

See weather overview